JR3QFB-13 Weather Reports


time (UTC)temp
C
wind
direction
speed
KPH
gust
KPH
rain 1hr
cm
rain 24hr
cm
rain mn
cm
humidity
%
barometer
mb
20260904145730 28 0 3.2 6.4 0.00 0.00 0.00 83 1009.2
20260904144228 28 0 1.6 1.6 0.00 0.00 0.00 83 1008.9
20260904142726 28 0 3.2 6.4 0.00 0.00 0.00 82 1008.5
20260904141223 28 337 4.8 6.4 0.00 0.00 0.00 83 1008.6
20260904135720 28 337 1.6 6.4 0.00 0.00 0.00 84 1008.8
20260904134218 28 337 3.2 4.8 0.00 0.00 0.00 84 1009.2
20260904132716 28 337 3.2 8.0 0.00 0.00 0.00 84 1009.1
20260904131213 28 337 1.6 3.2 0.00 0.00 0.00 85 1009.3
20260904125710 28 337 3.2 6.4 0.00 0.00 0.00 84 1008.9
20260904124208 28 337 3.2 6.4 0.00 0.00 0.00 85 1009.2
20260904122706 28 337 3.2 3.2 0.00 0.00 0.00 85 1009.2
20260904121203 28 337 0.0 1.6 0.00 0.00 0.00 85 1008.8
20260904115700 28 337 1.6 3.2 0.00 0.00 0.00 84 1009.4
20260904114158 28 337 1.6 4.8 0.00 0.00 0.00 84 1009.5
20260904111148 28 337 3.2 3.2 0.00 0.00 0.00 84 1009.9
20260904105645 28 337 0.0 3.2 0.00 0.00 0.00 84 1009.6
20260904104143 28 337 0.0 3.2 0.00 0.00 0.00 83 1009.1
20260904102641 28 315 4.8 8.0 0.00 0.00 0.00 84 1008.6
20260904101138 28 45 3.2 8.0 0.00 0.00 0.00 85 1008.9
20260904095635 28 90 1.6 4.8 0.00 0.00 0.00 85 1008.5
20260904094133 28 90 1.6 1.6 0.00 0.00 0.00 85 1009.0
20260904092631 28 90 0.0 0.0 0.00 0.00 0.00 86 1009.3
20260904091128 28 87 0.0 0.0 0.00 0.00 0.00 84 1008.6
20260904085625 28 90 0.0 1.6 0.00 0.00 0.00 84 1008.2
20260904084123 28 90 0.0 0.0 0.00 0.00 0.00 83 1008.6
20260904082621 28 135 0.0 1.6 0.00 0.00 0.00 84 1009.1
20260904081118 28 135 0.0 4.8 0.00 0.00 0.00 84 1009.5
20260904075615 28 45 0.0 1.6 0.00 0.00 0.00 84 1009.7
20260904074113 28 45 1.6 4.8 0.00 0.00 0.00 84 1009.0
20260904072611 28 45 3.2 3.2 0.00 0.00 0.00 84 1009.1
20260904071108 28 45 1.6 1.6 0.00 0.00 0.00 83 1009.4
20260904065605 28 45 1.6 1.6 0.00 0.00 0.00 83 1009.5
20260904064103 28 45 1.6 1.6 0.00 0.00 0.00 83 1010.0
20260904062601 28 45 1.6 1.6 0.00 0.00 0.00 83 1010.3
20260904061058 28 112 1.6 1.6 0.00 0.00 0.00 82 1010.2
20260904055559 28 112 0.0 1.6 0.00 0.00 0.00 82 1009.1
20260904054058 28 112 0.0 3.2 0.00 0.00 0.00 82 1009.0
20260904052551 28 112 1.6 4.8 0.00 0.00 0.00 82 1008.6
20260904051053 28 112 1.6 3.2 0.00 0.00 0.00 82 1008.8
20260904045545 28 135 1.6 3.2 0.00 0.00 0.00 82 1009.3
20260904044057 28 135 0.0 0.0 0.00 0.00 0.00 82 1009.6
20260904042541 28 135 0.0 3.2 0.00 0.00 0.00 82 1009.1
20260904041038 28 135 1.6 1.6 0.00 0.00 0.00 82 1009.4
20260904035535 29 135 1.6 4.8 0.00 0.00 0.00 81 1009.6
20260904034036 29 135 0.0 3.2 0.00 0.00 0.00 82 1009.5
20260904032531 29 112 0.0 3.2 0.00 0.00 0.00 82 1010.1
20260904031028 29 112 0.0 3.2 0.00 0.00 0.00 81 1010.0
20260904025525 29 112 3.2 6.4 0.00 0.00 0.00 81 1009.8
20260904024023 29 157 0.0 1.6 0.00 0.00 0.00 83 1009.9
20260904022521 29 135 0.0 1.6 0.00 0.00 0.00 83 1010.1
20260904021018 28 135 1.6 1.6 0.00 0.00 0.00 84 1009.8
20260904015515 29 180 0.0 1.6 0.00 0.00 0.00 84 1010.2
20260904014013 28 180 0.0 1.6 0.00 0.00 0.00 83 1010.3
20260904012511 28 135 0.0 3.2 0.00 0.00 0.00 83 1009.7
20260904011007 28 135 1.6 4.8 0.00 0.00 0.00 83 1009.7
20260904005505 28 112 0.0 4.8 0.00 0.00 0.00 83 1009.9
20260904004002 28 112 0.0 4.8 0.00 0.00 0.00 83 1010.1
20260904002501 28 112 1.6 6.4 0.00 0.00 0.00 83 1010.2
20260904000958 28 112 3.2 6.4 0.00 0.00 0.00 83 1010.4
20260903235455 28 112 3.2 6.4 0.00 0.00 0.00 82 1009.4
20260903233953 28 135 3.2 4.8 0.00 0.00 0.00 83 1010.0
20260903232452 28 135 1.6 3.2 0.00 0.00 0.00 83 1010.2
20260903230947 29 135 0.0 3.2 0.00 0.00 0.00 83 1010.5
20260903225445 29 135 1.6 6.4 0.00 0.00 0.00 83 1010.0
20260903222441 29 135 0.0 1.6 0.00 0.00 0.00 83 1010.9
20260903220945 29 135 0.0 1.6 0.00 0.00 0.00 82 1010.9
20260903213935 29 135 0.0 3.2 0.00 0.00 0.00 82 1010.4
20260903212436 29 135 1.6 3.2 0.00 0.00 0.00 82 1010.7
20260903210927 29 135 1.6 1.6 0.00 0.00 0.00 81 1010.9
20260903205430 29 135 0.0 0.0 0.00 0.00 0.00 81 1010.3
20260903203922 29 315 0.0 3.2 0.00 0.00 0.00 81 1010.2
20260903202422 29 33 1.6 3.2 0.00 0.00 0.00 80 1010.1
20260903200921 29 45 0.0 3.2 0.00 0.00 0.00 81 1009.6
20260903195415 30 90 0.0 3.2 0.00 0.00 0.00 80 1009.6
20260903193912 30 180 0.0 1.6 0.00 0.00 0.00 80 1009.9
20260903192411 30 180 0.0 1.6 0.00 0.00 0.00 80 1009.1
20260903190907 30 180 1.6 1.6 0.00 0.00 0.00 80 1009.5
20260903185405 30 180 0.0 1.6 0.00 0.00 0.00 80 1009.5
20260903183902 30 180 1.6 1.6 0.00 0.00 0.00 80 1010.0
20260903182401 30 315 0.0 3.2 0.00 0.00 0.00 80 1009.8
20260903180857 30 315 1.6 4.8 0.00 0.00 0.00 80 1009.4
20260903175355 30 315 0.0 1.6 0.00 0.00 0.00 79 1009.7
20260903173852 30 315 0.0 1.6 0.00 0.00 0.00 79 1009.5
20260903172351 30 315 1.6 3.2 0.00 0.00 0.00 80 1009.5
20260903170847 30 315 0.0 1.6 0.00 0.00 0.00 80 1009.5
20260903165345 30 315 0.0 3.2 0.00 0.00 0.00 80 1009.5
20260903163842 30 315 1.6 4.8 0.00 0.00 0.00 79 1009.2
20260903162341 30 315 0.0 3.2 0.00 0.00 0.00 79 1009.6
20260903160837 30 315 0.0 4.8 0.00 0.00 0.00 80 1009.7
20260903155335 30 315 3.2 6.4 0.00 0.00 0.00 80 1009.7
20260903153832 30 315 1.6 3.2 0.00 0.00 0.00 80 1009.6
20260903152331 30 315 3.2 3.2 0.00 0.00 0.00 80 1009.3
20260903150827 30 315 1.6 3.2 0.00 0.00 0.00 80 1009.3